Theta_e
342 344 347 349 363 368 373 369 360 358 354 345 346 351 356 355 356 361 347 348 347 348 350 350 348 349 348 346 351 352 351 350 348 347 345 346 352 352 353 352 351 351 353 354 353 353 353 353 350
348 345 347 361 371 377 375 363 363 357 347 345 345 353 350 352 347 346 346 347 346 347 347 348 349 351 351 350 352 352 351 352 352 347 352 351 349 351 353 354 353 352 350 353 353 353 353 352 341
353 345 358 366 371 373 371 363 358 353 348 346 357 354 347 348 345 345 346 346 345 345 347 349 347 351 352 352 352 352 351 352 352 350 351 352 350 352 352 352 353 353 351 353 352 353 352 347 338
354 348 358 371 370 367 365 361 354 352 348 353 352 354 345 344 344 345 345 344 344 349 348 350 350 352 353 352 352 352 351 348 352 351 352 351 351 350 352 352 353 353 353 351 351 352 350 338 337
351 359 369 369 364 365 361 360 358 356 352 354 354 350 347 345 344 344 344 343 345 348 348 351 350 353 353 353 352 352 352 351 352 352 352 352 351 352 351 352 352 352 352 352 351 353 351 340 342
359 361 370 370 364 362 362 358 355 358 355 355 352 347 346 344 344 344 344 345 349 347 347 350 351 353 353 352 353 351 352 352 351 351 351 351 351 351 351 351 352 352 350 352 352 352 348 339 340
362 367 368 364 364 362 361 357 360 362 354 355 352 352 347 345 344 344 345 348 346 346 348 349 351 353 353 352 352 352 351 351 351 350 351 352 351 351 351 351 351 352 352 352 351 343 341 337 339
359 365 365 361 362 362 358 361 359 361 356 354 351 353 348 345 344 345 345 346 347 348 349 350 351 352 350 353 353 352 351 350 349 348 343 344 349 349 349 347 350 350 352 352 343 340 336 334 341
355 367 369 360 360 360 358 360 355 355 360 356 355 347 343 343 343 345 345 348 348 346 349 348 352 350 350 351 350 350 344 346 343 345 347 348 349 348 349 347 350 346 351 345 341 339 335 336 343
362 367 364 357 357 358 359 354 357 360 361 357 349 344 342 342 343 344 345 346 348 349 348 349 350 350 352 348 351 351 349 350 349 349 348 347 348 345 345 348 347 343 341 342 344 345 345 343 343
360 368 356 356 356 357 359 356 352 360 364 356 349 345 343 343 343 342 345 346 347 348 348 350 348 352 351 350 352 350 351 351 348 349 349 350 347 346 340 341 346 342 345 347 346 348 348 350 347
361 350 352 356 356 356 359 355 358 358 360 355 346 343 344 343 343 342 343 346 345 349 351 349 353 349 350 351 348 350 350 348 348 346 348 346 344 347 345 348 345 349 346 346 335 348 346 344 342
353 350 354 349 354 356 357 357 360 352 352 354 346 345 344 343 342 342 342 345 347 348 351 351 350 349 352 347 350 349 346 347 344 346 346 347 346 345 347 345 344 345 346 348 349 349 347 345 342
346 357 355 346 352 357 358 357 358 355 356 352 347 346 344 343 342 343 344 345 346 349 349 351 352 347 352 349 348 351 347 348 347 347 348 346 346 346 344 346 344 346 349 348 350 346 346 346 343
339 346 352 347 350 357 355 359 360 358 355 353 348 346 344 342 342 344 344 346 345 346 348 351 349 350 353 351 351 349 350 350 347 350 351 350 348 347 347 346 347 348 347 343 346 348 348 345 342
337 346 357 348 346 354 356 366 360 356 355 352 348 346 344 343 342 343 344 346 345 346 347 347 347 350 352 348 351 351 350 350 348 351 352 353 351 351 346 349 348 345 342 348 348 350 344 345 344
337 348 351 350 345 357 357 366 361 357 355 352 349 346 344 343 343 343 344 345 345 347 348 346 348 348 350 345 351 352 351 351 345 347 351 351 352 353 349 350 350 345 347 346 347 344 345 346 342
339 342 349 352 347 355 358 364 361 358 355 354 350 347 346 344 344 343 343 345 344 347 348 347 347 348 350 347 351 351 351 353 352 350 349 351 351 352 351 350 350 352 345 348 347 350 348 346 343
339 342 351 350 349 357 351 348 360 359 355 354 352 348 347 346 344 343 343 343 343 348 348 348 352 348 351 350 348 351 349 351 353 352 352 350 351 352 351 351 351 350 350 348 349 345 347 349 343
336 337 350 349 348 357 352 356 359 359 358 355 352 350 351 350 347 344 343 341 342 348 348 349 354 349 352 348 349 349 351 352 353 351 354 352 352 352 351 351 350 352 351 349 349 351 345 347 344
330 335 350 352 350 352 358 362 346 359 356 357 355 353 351 351 350 344 343 341 342 348 349 350 354 350 351 350 350 354 349 344 354 351 354 354 353 353 354 352 351 349 350 351 351 351 350 351 346
330 334 338 350 349 345 346 360 366 363 358 351 358 357 355 352 350 345 343 342 342 346 348 351 353 351 351 354 350 352 350 347 352 350 354 353 353 353 355 354 355 352 350 351 350 350 350 346 351
332 334 342 344 345 339 340 352 353 354 363 346 353 358 354 350 346 346 345 344 343 345 346 351 352 355 352 354 354 350 351 352 350 353 351 353 354 355 352 354 353 353 349 350 350 349 344 352 348
333 333 333 340 341 340 341 341 353 358 356 353 350 358 354 352 348 347 347 347 347 345 344 350 353 354 356 351 354 353 352 348 349 351 349 353 354 354 353 352 354 353 351 349 351 352 352 353 349
332 335 335 343 340 338 338 342 356 353 350 353 357 356 351 347 350 350 350 349 349 345 343 350 353 355 356 353 354 357 355 354 351 351 352 355 354 354 354 352 355 354 353 351 353 351 354 351 354
332 335 335 341 338 336 335 350 349 346 345 343 350 351 356 346 348 351 352 351 349 348 344 349 355 357 355 357 357 355 355 354 352 351 351 351 350 352 354 351 353 353 352 354 352 351 351 353 349
334 336 334 332 332 333 345 348 345 345 346 348 358 359 357 356 355 347 349 352 349 350 349 350 355 357 357 357 358 359 357 357 355 348 345 350 352 350 353 353 352 353 354 353 352 352 350 351 349
335 333 335 337 338 337 347 350 351 348 357 358 358 357 358 355 356 351 345 346 347 350 348 356 356 358 358 358 359 359 360 358 355 355 351 348 353 351 347 350 354 351 353 354 352 352 351 351 351
332 333 333 334 335 337 350 348 346 350 357 357 353 350 350 351 350 352 346 348 341 352 354 354 358 361 361 361 360 359 360 361 358 358 353 349 352 352 350 349 352 353 352 352 354 352 353 351 350
326 332 332 336 339 336 349 350 344 349 352 349 348 346 344 344 346 346 345 346 349 349 351 351 352 358 360 360 361 361 361 360 361 359 359 356 352 353 353 352 349 354 354 353 352 352 354 352 352
Wind_Speed
7 8 10 11 2 4 2 3 8 8 4 15 15 16 17 13 7 14 33 33 29 25 21 18 17 17 15 15 15 14 13 14 14 13 12 12 13 14 14 15 16 17 17 18 19 19 17 17 16
9 6 7 2 3 2 3 4 9 2 16 15 16 23 19 21 22 27 26 35 29 25 22 18 18 17 15 14 13 14 14 13 13 13 13 12 12 12 13 14 14 16 16 17 18 18 17 15 17
8 6 0 3 3 2 3 3 7 10 15 13 19 16 14 22 27 26 35 33 28 27 23 20 17 16 14 14 13 13 14 14 13 13 13 13 13 12 13 14 14 15 15 15 16 17 16 15 19
8 3 4 3 1 10 11 9 3 13 15 17 16 15 21 25 32 35 34 32 29 27 22 20 18 16 15 14 13 13 14 14 13 13 13 12 13 13 13 13 13 14 15 14 15 16 16 17 18
2 3 3 2 4 2 5 2 6 11 9 12 25 22 23 27 34 32 33 29 32 27 22 19 17 14 14 15 13 14 13 13 13 13 12 13 13 13 14 13 13 13 13 13 13 15 15 16 16
3 2 3 3 5 2 7 9 8 11 13 20 24 21 18 35 31 29 29 30 28 26 22 17 16 15 14 13 13 14 13 13 13 13 13 13 14 13 13 13 13 13 12 13 15 15 14 15 16
6 2 1 10 5 5 2 5 5 3 16 21 20 21 18 27 29 29 29 32 28 27 22 16 14 13 14 13 13 13 13 12 12 13 13 13 14 14 14 14 13 12 13 16 16 15 14 15 16
6 4 2 8 10 6 2 5 8 10 13 14 19 19 22 27 29 32 30 22 33 25 22 22 16 13 14 13 13 13 12 11 12 12 13 15 16 14 13 15 13 13 13 14 14 14 15 18 20
7 3 2 7 10 7 6 4 2 9 5 5 8 25 27 32 27 32 27 32 27 22 23 17 20 17 17 14 13 13 12 11 13 14 13 12 13 15 13 14 13 13 12 13 12 12 16 19 15
5 1 5 11 9 14 11 7 6 4 4 9 17 27 34 31 27 27 27 23 25 22 22 19 18 19 19 16 16 13 13 10 9 7 12 15 13 16 12 13 14 13 14 14 10 10 8 10 9
7 4 6 10 17 20 18 15 10 5 8 13 26 28 27 29 25 24 27 27 23 22 19 20 15 19 20 16 16 14 15 15 10 9 8 9 11 13 12 16 12 11 11 15 10 8 4 8 6
6 12 15 17 12 21 20 19 14 10 9 9 25 27 24 23 20 23 24 29 21 33 20 18 19 16 13 23 14 14 13 13 15 12 12 12 11 9 8 10 10 8 9 10 10 14 3 5 9
11 10 15 4 13 21 20 19 15 13 14 19 25 25 23 20 23 24 25 26 25 27 23 22 15 14 11 9 12 13 15 14 12 13 11 7 10 9 7 9 8 9 6 10 6 6 5 10 10
8 25 21 8 14 18 13 9 13 14 17 20 24 24 21 21 22 23 24 24 20 26 25 20 14 11 9 18 16 12 14 12 11 11 10 8 9 8 10 8 10 11 11 11 8 8 5 8 11
8 14 14 9 16 19 19 14 9 15 15 20 23 22 20 20 23 21 23 23 17 17 23 21 18 10 6 9 11 11 11 12 16 12 6 9 12 7 4 11 2 10 8 8 10 4 4 12 11
14 13 17 13 16 17 7 9 15 14 13 21 24 21 19 19 23 22 23 22 20 17 23 17 19 18 12 12 10 12 12 13 6 11 8 7 11 11 8 4 6 8 9 5 5 2 1 7 10
13 13 15 12 15 22 13 7 12 10 15 20 21 20 19 18 21 22 24 23 21 22 21 15 19 17 13 12 8 15 9 15 8 11 6 8 8 6 8 3 6 9 4 6 6 3 5 1 10
17 19 12 11 12 20 16 16 17 13 16 17 19 19 17 19 20 21 23 25 20 23 18 13 16 20 13 12 8 12 7 2 9 11 11 11 10 7 6 6 6 7 6 9 6 1 3 5 2
18 18 17 13 16 13 13 11 11 14 14 16 16 16 15 15 21 23 23 25 22 24 20 16 17 20 14 12 9 9 15 7 7 10 12 10 11 8 10 8 6 5 2 7 5 3 2 6 3
23 19 7 4 17 18 21 15 16 20 18 17 16 11 13 8 8 21 23 23 24 25 22 19 18 21 17 14 12 5 12 12 10 6 7 9 10 9 8 9 8 4 8 9 5 2 2 6 7
23 18 16 13 22 17 23 16 17 16 19 15 15 15 17 14 11 19 22 24 26 26 25 21 20 22 20 16 10 7 3 6 9 6 10 13 11 7 8 6 5 11 8 9 7 4 1 4 4
17 19 14 23 17 12 20 12 32 28 16 5 4 17 17 20 20 19 23 24 27 27 26 24 21 22 21 12 12 8 15 11 13 16 17 15 12 9 7 6 5 6 9 5 9 7 5 3 8
15 17 13 14 18 14 16 10 12 19 23 22 21 20 21 21 16 20 21 26 29 30 28 28 24 23 20 16 12 12 8 10 9 12 8 9 13 10 9 7 6 7 5 12 10 8 5 6 8
21 14 15 8 12 12 10 15 13 10 4 26 33 24 19 14 15 17 26 26 27 31 30 29 27 25 22 21 15 15 16 11 12 12 10 13 11 13 12 9 8 5 6 12 10 7 4 5 3
18 15 9 9 10 10 15 9 7 17 6 19 3 22 22 8 14 23 22 23 24 30 32 32 29 26 24 24 19 16 14 11 18 7 11 15 13 13 11 12 12 8 8 10 5 6 4 3 5
16 16 9 14 11 11 18 12 9 15 6 13 22 15 28 27 24 22 22 27 12 25 34 35 35 30 28 25 23 20 17 12 12 15 14 11 9 7 13 12 11 10 10 8 10 10 9 4 7
19 17 18 16 19 15 9 12 9 10 12 10 23 19 19 3 22 12 15 26 31 37 32 37 39 36 33 30 25 23 21 18 15 15 12 8 3 7 13 7 9 10 11 10 10 11 13 7 10
14 14 17 14 13 14 12 18 15 16 17 18 20 19 17 13 11 6 7 5 3 22 31 32 38 37 36 32 28 25 23 22 19 10 13 11 11 13 7 11 15 12 12 11 11 11 11 10 10
11 13 13 17 14 9 9 1 16 17 16 16 18 15 13 14 13 14 12 4 19 16 11 17 36 33 33 31 29 28 26 24 22 18 17 18 11 12 11 15 16 17 16 14 12 13 7 15 14
18 17 16 11 18 6 7 2 13 13 17 15 14 15 14 13 14 13 17 19 19 2 27 10 19 2 29 27 27 29 29 27 25 22 20 19 19 18 18 12 19 17 17 19 16 13 12 14 14
Wind_Direction
193 206 219 245 320 228 182 202 121 116 145 109 67 73 76 41 76 111 147 130 133 133 130 126 127 119 113 108 105 100 95 92 86 87 88 92 86 86 83 85 87 84 86 85 89 89 92 90 91
191 215 257 317 242 205 79 82 92 133 102 89 92 79 67 85 100 131 120 130 133 132 131 131 131 124 116 112 108 103 98 94 89 85 87 90 92 91 91 90 88 90 92 90 90 91 92 91 99
236 223 248 223 258 23 86 140 132 118 119 132 82 69 74 108 124 121 132 128 132 133 129 133 131 121 114 109 106 101 98 93 90 91 90 92 93 94 95 92 92 93 97 96 93 96 93 94 103
198 217 247 254 354 42 154 158 143 101 117 79 101 76 112 113 117 127 135 130 134 122 125 126 126 122 120 114 109 106 102 98 90 91 92 93 99 100 98 100 97 98 98 97 98 99 98 99 110
227 253 261 249 87 3 49 328 265 118 123 86 99 115 113 112 124 134 137 137 134 126 126 122 125 121 117 109 110 104 101 98 99 97 97 102 100 102 101 103 101 100 99 99 104 107 102 107 113
234 225 240 142 99 4 291 354 94 102 104 99 109 123 112 124 135 146 136 127 126 129 127 124 123 119 115 111 112 110 105 105 100 101 102 103 105 105 106 106 104 100 101 104 111 113 105 106 117
247 260 145 102 131 164 194 299 80 37 146 127 128 123 131 134 144 145 131 128 139 130 128 130 128 125 118 116 116 113 109 105 107 108 114 112 104 109 108 108 105 101 98 108 113 110 103 105 120
207 291 310 134 149 145 69 87 18 354 113 129 125 137 145 144 156 138 135 141 117 124 133 139 139 136 127 122 124 118 114 112 108 113 120 121 114 112 115 109 102 100 102 114 112 109 104 116 122
149 296 208 147 172 128 133 120 51 298 302 285 161 147 141 148 158 137 143 120 125 123 140 142 147 146 140 131 131 125 118 116 113 115 114 117 116 108 111 122 111 106 107 116 116 111 119 124 114
121 41 251 131 157 137 131 111 113 303 329 157 131 133 143 150 162 145 132 139 123 131 154 149 141 149 151 137 137 137 124 135 134 122 120 97 120 124 123 125 119 115 117 118 113 105 119 111 110
125 210 146 115 122 140 146 141 171 233 270 139 142 143 151 155 154 151 146 128 137 154 152 136 131 154 158 143 152 148 146 128 128 127 127 140 120 112 114 123 124 125 130 121 108 158 239 277 229
76 316 276 130 129 150 154 157 172 175 321 284 140 148 149 158 156 155 142 131 142 134 145 138 123 132 166 143 156 151 158 148 139 122 121 133 122 111 143 164 148 155 113 108 102 72 93 70 59
106 330 285 136 130 145 168 184 140 129 207 239 148 150 152 156 160 154 144 136 139 130 141 131 132 142 98 128 145 141 121 122 129 137 138 149 133 123 164 126 131 130 118 115 103 117 111 87 87
170 184 245 171 120 133 158 154 139 150 210 157 148 152 159 157 160 148 142 138 149 148 123 122 125 151 117 143 134 111 139 122 124 128 121 135 140 121 120 125 129 131 83 104 91 138 145 114 113
233 209 238 214 141 156 147 142 124 138 132 143 152 158 161 162 152 147 141 136 152 149 128 134 147 158 149 133 127 139 143 138 149 130 140 117 125 120 174 122 82 111 126 106 133 130 205 144 119
229 232 219 184 176 140 113 145 135 134 142 151 158 162 160 161 151 155 149 145 147 146 132 166 154 153 158 155 168 152 152 120 186 137 159 157 135 128 153 122 77 126 127 140 166 225 172 143 144
208 223 211 212 162 142 142 97 316 135 152 162 163 164 161 158 152 159 153 152 154 138 142 181 143 151 151 170 190 161 157 138 172 141 156 168 143 143 158 136 144 136 170 154 145 66 211 42 147
208 229 202 180 174 124 123 150 200 184 159 166 168 166 164 164 157 163 159 151 159 142 152 174 154 147 158 174 225 132 134 137 106 160 179 167 136 141 133 160 151 160 194 161 127 76 282 28 215
218 224 167 157 262 127 138 133 207 172 179 172 171 170 159 172 157 164 164 155 164 149 160 165 151 152 156 175 195 178 153 172 138 148 153 137 144 148 143 137 172 166 109 133 172 152 343 22 61
255 236 169 36 309 105 145 153 228 169 178 178 177 168 151 186 176 161 167 163 163 151 160 165 155 161 177 188 206 193 151 162 184 187 145 158 155 151 145 149 174 170 150 138 168 331 320 3 49
240 257 158 146 268 159 152 135 220 180 157 176 171 192 171 185 218 163 174 171 161 155 162 169 168 173 190 185 209 124 234 177 178 176 176 179 162 163 163 161 159 156 169 167 187 183 273 303 156
230 236 232 165 217 201 188 166 181 173 136 126 250 181 187 186 200 170 175 172 167 161 167 171 174 177 195 196 192 173 165 191 215 197 182 168 162 168 167 155 158 157 192 154 178 185 252 255 330
240 230 144 215 202 229 187 140 179 161 153 153 216 213 177 186 180 179 179 175 172 166 170 170 176 179 195 197 180 195 172 175 230 151 150 184 157 166 172 185 192 157 161 187 194 154 196 321 289
239 280 235 215 212 231 196 230 154 158 203 183 198 196 173 173 197 178 181 183 170 166 168 168 176 183 194 200 189 196 182 174 190 158 185 192 160 170 174 184 204 167 183 181 170 180 183 267 339
230 251 195 212 211 228 208 197 112 130 134 236 117 172 153 165 240 177 191 186 176 164 167 166 175 184 193 199 205 203 195 167 143 206 195 180 166 185 200 191 187 195 188 193 166 204 211 240 284
213 235 202 210 218 228 256 130 151 139 132 152 186 144 159 161 216 191 186 176 152 176 171 169 175 181 191 194 200 210 216 198 179 184 199 191 183 191 223 200 200 193 199 193 210 204 217 231 254
195 235 228 207 220 226 112 91 114 142 128 120 69 71 48 198 171 212 207 171 164 215 175 173 177 181 186 195 197 200 208 209 209 202 190 190 193 159 144 194 206 208 206 195 204 212 226 231 225
267 232 238 250 275 244 145 157 150 162 105 88 69 58 71 44 65 350 301 59 102 327 189 177 179 181 185 190 196 199 201 209 214 212 180 184 206 178 208 231 206 196 215 207 213 210 224 216 216
217 248 254 257 247 229 152 358 147 142 113 103 92 80 58 63 49 67 77 328 293 318 333 193 181 184 182 187 193 198 199 204 213 214 206 199 180 186 177 193 208 207 208 209 216 223 244 214 220
248 228 239 238 250 303 53 93 335 104 103 94 84 83 71 52 62 72 75 76 84 117 23 321 7 221 184 194 197 195 195 197 201 208 209 206 200 197 195 206 210 215 209 209 211 228 227 206 217